Location: Brantford
(43.1330°N, 80.2670°W)
Time: 01:48:00
(UTC-05:00)

deb Explorer IX - Visible Passes

Search period start: 12 November 2019 00:00
Search period end: 22 November 2019 00:00
Orbit: 546 x 1105 km, 38.8° (Epoch: 11 November)

Date Brightness Start Highest point End Pass type
(mag) Time Alt. Az. Time Alt. Az. Time Alt. Az.
12 Nov ? 04:54:25 37° S 04:54:59 38° SSE 04:59:08 10° E visible
12 Nov ? 06:37:03 10° WSW 06:41:31 48° S 06:45:33 10° ESE visible
13 Nov ? 04:33:47 38° SE 04:33:47 38° SE 04:37:22 10° E visible
13 Nov ? 06:15:10 11° WSW 06:19:39 48° S 06:23:46 10° ESE visible
14 Nov ? 04:13:07 28° ESE 04:13:07 28° ESE 04:15:36 10° E visible
14 Nov ? 05:54:30 18° WSW 05:57:48 49° S 06:01:59 10° ESE visible
15 Nov ? 03:52:25 19° ESE 03:52:25 19° ESE 03:53:51 10° E visible
15 Nov ? 05:33:48 29° WSW 05:35:55 50° S 05:40:13 10° ESE visible
16 Nov ? 03:31:42 12° E 03:31:42 12° E 03:32:04 10° E visible
16 Nov ? 05:13:04 44° SW 05:14:02 51° S 05:18:25 10° ESE visible
17 Nov ? 04:52:21 51° S 04:52:21 51° S 04:56:38 10° ESE visible
17 Nov ? 06:34:23 10° W 06:38:30 27° SSW 06:42:13 10° SE visible
18 Nov ? 04:31:37 39° SE 04:31:37 39° SE 04:34:51 10° ESE visible
18 Nov ? 06:12:59 13° WSW 06:16:36 28° SSW 06:20:25 10° SE visible
19 Nov ? 04:10:53 26° ESE 04:10:53 26° ESE 04:13:04 10° ESE visible
19 Nov ? 05:52:16 19° WSW 05:54:42 28° SSW 05:58:37 10° SE visible
20 Nov ? 03:50:11 17° ESE 03:50:11 17° ESE 03:51:15 10° ESE visible
20 Nov ? 05:31:34 26° SW 05:32:46 29° SSW 05:36:49 10° SE visible
21 Nov ? 05:10:54 29° SSW 05:10:54 29° SSW 05:15:00 10° SE visible
